Tracking 30743 objects as of 22-Jun-2025
HD Live streaming from Space Station
objects crossing your sky now

FENGYUN 1C DEB

Track FENGYUN 1C DEB now!
10-day predictions


NORAD ID: 31047
Int'l Code: 1999-025BER
Perigee: 836.7 km
Apogee: 872.4 km
Inclination: 98.7 °
Period: 101.9 minutes
Semi major axis: 7225 km
RCS: 0.0107 m2 (small)
Launch date: May 10, 1999
Source: People's Republic of China (PRC)
Launch site: Taiyaun Space Center, China (TSC)

Note: This is SATELLITE DEBRIS
Your satellite tracking list
Your tracking list is empty




NASA's NSSDC Master Catalog

Two Line Element Set (TLE):
1 31047U 99025BER 25171.25830021  .00000515  00000-0  29565-3 0  9998
2 31047  98.6954 173.4707 0024726 323.2087  53.6343 14.13510561938802
Source of the keplerian elements: AFSPC